Simultaneous Nadir Overpasses (SNOs) Predictions

Prediction of SNOs between GOES-15 and METOP-A Satellite Orbit:

Table of predicted SNOs for the next 14.0 days since TLE Epoch: 3/29/2019
Index Date Time (GOES-15) GOES-15 Lat,Lon METOP-A Lat,Lon Distance(km) Time Diff (sec)
1 03/30/2019 17:54:17 -0.02,-128.13 0.72,-131.46 380.21 80
2 03/31/2019 17:36:14 -0.02,-128.10 -0.39,-126.47 186.66 80
3 04/02/2019 05:52:31 0.02,-128.08 -0.62,-131.07 339.89 80
4 04/03/2019 05:34:28 0.02,-128.06 0.48,-126.07 226.80 80
5 04/04/2019 17:50:35 -0.02,-128.00 0.56,-130.63 299.33 80
6 04/05/2019 17:32:32 -0.02,-127.97 -0.55,-125.63 267.14 80
7 04/07/2019 05:48:48 0.02,-127.94 -0.46,-130.23 260.18 80
8 04/08/2019 05:30:45 0.02,-127.91 0.59,-125.22 305.77 80
9 04/09/2019 17:46:52 -0.03,-127.84 0.39,-129.79 221.87 80
10 04/10/2019 17:28:50 -0.03,-127.80 -0.71,-124.79 343.52 80
11 04/12/2019 05:45:06 0.04,-127.76 -0.29,-129.40 185.36 80




NCC Satellite Simultaneous Nadir Overpasses (SNOs) Prediction Service
